Weather History for Bentonville, AR

Change the Weather History Date:

Wednesday, November 6, 2013

  Actual Average Record
Temperature  
Mean Temperature 48 °F -  
Max Temperature 62 °F 59 °F 78 °F (1978)
Min Temperature 35 °F 35 °F 15 °F (1959)
Degree Days  
Heating Degree Days 16    
Moisture  
Dew Point 39 °F    
Average Humidity 80    
Maximum Humidity 88    
Minimum Humidity 66    
Precipitation  
Precipitation 0.40 in - - ()
Sea Level Pressure  
Sea Level Pressure 30.16 in    
Wind  
Wind Speed 8 mph (NNW)    
Max Wind Speed 15 mph    
Max Gust Speed 24 mph    
Visibility 9 miles    
Events      
Averages and records for this station are not official NWS values.
T = Trace of Precipitation, MM = Missing Value Source: NWS Daily Summary

Daily Weather History Graph

Daily Weather History Graph

Search for Another Location

Airport:

Trip Planner

Search our weather history database for the weather conditions in past years. The results will help you decide how hot, cold, wet, or windy it might be!

Date:

Astronomy

Nov. 06, 2013 Rise Set
Actual Time 6:45 AM CST 5:15 PM CST
Civil Twilight 6:18 AM CST 5:42 PM CST
Nautical Twilight 5:47 AM CST 6:12 PM CST
Astronomical Twilight 5:17 AM CST 6:43 PM CST
Moon 9:58 AM CST (11/6) 8:22 PM CST (11/6)
Length of Visible Light 11h 24m
Length of Day
10h 30m
Waxing Crescent, 14% of the Moon is Illuminated
Nov 6
Waxing Crescent
Nov 9
First Quarter
Nov 17
Full
Nov 25
Last Quarter
Dec 2
New

Hourly Weather History & Observations

Time (CST) Temp. Windchill Dew Point Humidity Pressure Visibility Wind Dir Wind Speed Gust Speed Precip Events Conditions
12:15 AM 62.6 °F - 57.2 °F 82% 29.95 in 9.0 mi South 8.1 mph - 0.02 in   Mostly Cloudy
12:35 AM 62.6 °F - 57.2 °F 82% 29.94 in 6.0 mi SSE 9.2 mph - 0.05 in   Overcast
12:55 AM 60.8 °F - 57.2 °F 88% 29.93 in 10.0 mi SSE 8.1 mph - 0.08 in   Overcast
1:15 AM 60.8 °F - 57.2 °F 88% 29.92 in 10.0 mi South 5.8 mph - 0.01 in   Overcast
1:35 AM 60.8 °F - 57.2 °F 88% 29.91 in 10.0 mi South 10.4 mph - 0.05 in   Overcast
1:55 AM 60.8 °F - 57.2 °F 88% 29.89 in 10.0 mi South 12.7 mph - 0.07 in   Overcast
2:15 AM 60.8 °F - 57.2 °F 88% 29.89 in 10.0 mi South 8.1 mph - 0.01 in   Overcast
2:35 AM 62.6 °F - 59.0 °F 88% 29.89 in 10.0 mi South 8.1 mph - 0.01 in   Overcast
2:55 AM 60.8 °F - 55.4 °F 82% 29.94 in 6.0 mi WSW 12.7 mph 23.0 mph 0.17 in   Overcast
3:15 AM 59.0 °F - 55.4 °F 88% 29.96 in 10.0 mi WNW 10.4 mph - 0.05 in   Overcast
3:35 AM 57.2 °F - 53.6 °F 88% 29.96 in 10.0 mi WNW 12.7 mph 24.2 mph 0.07 in   Overcast
3:55 AM 55.4 °F - 50.0 °F 82% 29.98 in 10.0 mi NW 11.5 mph 17.3 mph 0.07 in   Overcast
4:15 AM 53.6 °F - 50.0 °F 88% 29.97 in 10.0 mi NNW 8.1 mph - N/A   Overcast
4:35 AM 53.6 °F - 48.2 °F 82% 29.98 in 10.0 mi NNW 5.8 mph - N/A   Overcast
4:55 AM 53.6 °F - 48.2 °F 82% 29.99 in 10.0 mi WNW 10.4 mph - N/A   Overcast
5:15 AM 51.8 °F - 46.4 °F 82% 30.00 in 10.0 mi WNW 15.0 mph - N/A   Overcast
5:35 AM 48.2 °F - 44.6 °F 87% 30.03 in 10.0 mi WNW 15.0 mph 19.6 mph N/A   Overcast
5:55 AM 48.2 °F - 42.8 °F 82% 30.03 in 10.0 mi NNW 9.2 mph 16.1 mph 0.01 in   Overcast
6:15 AM 46.4 °F 42.4 °F 42.8 °F 87% 30.06 in 10.0 mi NW 8.1 mph - N/A   Overcast
6:35 AM 46.4 °F 41.9 °F 42.8 °F 87% 30.05 in 10.0 mi North 9.2 mph - N/A   Overcast
6:55 AM 44.6 °F 39.2 °F 41.0 °F 87% 30.06 in 9.0 mi North 10.4 mph - N/A   Overcast
7:15 AM 44.6 °F 40.2 °F 41.0 °F 87% 30.08 in 1.2 mi NNW 8.1 mph - N/A   Overcast
7:35 AM 42.8 °F 35.8 °F 39.2 °F 87% 30.08 in 3.0 mi NW 13.8 mph - N/A   Overcast
7:55 AM 42.8 °F 35.8 °F 39.2 °F 87% 30.10 in 5.0 mi NNW 13.8 mph 17.3 mph N/A   Overcast
8:15 AM 42.8 °F 37.5 °F 37.4 °F 81% 30.13 in 10.0 mi NNW 9.2 mph - N/A   Overcast
8:35 AM 42.8 °F 38.0 °F 37.4 °F 81% 30.14 in 5.0 mi NNW 8.1 mph - N/A   Overcast
8:55 AM 42.8 °F 38.0 °F 37.4 °F 81% 30.15 in 5.0 mi NW 8.1 mph - N/A   Overcast
9:15 AM 42.8 °F 37.0 °F 37.4 °F 81% 30.16 in 7.0 mi NNW 10.4 mph - N/A   Overcast
9:35 AM 42.8 °F 37.5 °F 37.4 °F 81% 30.16 in 10.0 mi NNW 9.2 mph - N/A   Overcast
9:55 AM 41.0 °F 36.4 °F 37.4 °F 87% 30.17 in 10.0 mi NNW 6.9 mph - N/A   Overcast
10:15 AM 41.0 °F 38.0 °F 35.6 °F 81% 30.17 in 10.0 mi NNW 4.6 mph - N/A   Overcast
10:35 AM 42.8 °F 38.6 °F 37.4 °F 81% 30.18 in 10.0 mi NW 6.9 mph - N/A   Overcast
10:55 AM 41.0 °F 34.3 °F 35.6 °F 81% 30.19 in 10.0 mi NW 11.5 mph 16.1 mph N/A   Overcast
11:15 AM 41.0 °F 35.8 °F 35.6 °F 81% 30.20 in 10.0 mi NNW 8.1 mph - N/A   Overcast
11:35 AM 42.8 °F 37.5 °F 35.6 °F 76% 30.20 in 10.0 mi NNW 9.2 mph - N/A   Overcast
11:55 AM 41.0 °F 38.0 °F 35.6 °F 81% 30.20 in 10.0 mi NNW 4.6 mph - N/A   Overcast
12:15 PM 41.0 °F 35.8 °F 35.6 °F 81% 30.20 in 10.0 mi NW 8.1 mph - N/A   Overcast
12:35 PM 41.0 °F 34.7 °F 35.6 °F 81% 30.19 in 10.0 mi NNW 10.4 mph 16.1 mph N/A   Overcast
12:55 PM 41.0 °F 36.4 °F 35.6 °F 81% 30.20 in 10.0 mi NNW 6.9 mph - N/A   Overcast
1:15 PM 42.8 °F 38.0 °F 35.6 °F 76% 30.19 in 10.0 mi North 8.1 mph - N/A   Overcast
1:35 PM 42.8 °F 38.0 °F 35.6 °F 76% 30.20 in 10.0 mi NW 8.1 mph - N/A   Overcast
1:55 PM 42.8 °F 37.0 °F 35.6 °F 76% 30.21 in 10.0 mi NW 10.4 mph - N/A   Overcast
2:15 PM 42.8 °F 36.6 °F 35.6 °F 76% 30.21 in 10.0 mi NNW 11.5 mph 16.1 mph N/A   Overcast
2:35 PM 44.6 °F 40.2 °F 35.6 °F 71% 30.22 in 10.0 mi NNW 8.1 mph 17.3 mph N/A   Overcast
2:55 PM 44.6 °F 39.7 °F 35.6 °F 71% 30.22 in 10.0 mi NW 9.2 mph - N/A   Overcast
3:15 PM 44.6 °F 39.2 °F 35.6 °F 71% 30.23 in 10.0 mi North 10.4 mph 16.1 mph N/A   Overcast
3:35 PM 44.6 °F 39.7 °F 35.6 °F 71% 30.23 in 10.0 mi NNW 9.2 mph - N/A   Overcast
3:55 PM 44.6 °F 39.7 °F 35.6 °F 71% 30.24 in 10.0 mi NNW 9.2 mph - N/A   Overcast
4:15 PM 44.6 °F 39.7 °F 33.8 °F 66% 30.24 in 10.0 mi North 9.2 mph - N/A   Overcast
4:35 PM 44.6 °F 40.2 °F 33.8 °F 66% 30.24 in 10.0 mi NNW 8.1 mph - N/A   Overcast
4:55 PM 44.6 °F 40.7 °F 33.8 °F 66% 30.25 in 10.0 mi NNW 6.9 mph - N/A   Overcast
5:15 PM 44.6 °F 40.2 °F 33.8 °F 66% 30.25 in 10.0 mi NNW 8.1 mph - N/A   Overcast
5:35 PM 42.8 °F 37.5 °F 33.8 °F 70% 30.26 in 10.0 mi NNW 9.2 mph - N/A   Overcast
5:55 PM 42.8 °F 37.0 °F 33.8 °F 70% 30.27 in 10.0 mi North 10.4 mph - N/A   Overcast
6:15 PM 42.8 °F 38.0 °F 32.0 °F 66% 30.27 in 10.0 mi North 8.1 mph - N/A   Mostly Cloudy
6:35 PM 42.8 °F 38.6 °F 32.0 °F 66% 30.27 in 10.0 mi North 6.9 mph - N/A   Partly Cloudy
6:55 PM 41.0 °F 38.0 °F 32.0 °F 70% 30.28 in 10.0 mi North 4.6 mph - N/A   Clear
7:15 PM 41.0 °F 38.0 °F 32.0 °F 70% 30.28 in 10.0 mi NNW 4.6 mph - N/A   Scattered Clouds
7:35 PM 39.2 °F 37.0 °F 32.0 °F 75% 30.29 in 10.0 mi NNW 3.5 mph - N/A   Partly Cloudy
7:55 PM 39.2 °F 35.9 °F 32.0 °F 75% 30.29 in 10.0 mi NNW 4.6 mph - N/A   Clear
8:15 PM 39.2 °F 35.9 °F 32.0 °F 75% 30.29 in 10.0 mi North 4.6 mph - N/A   Clear
8:35 PM 39.2 °F 35.9 °F 32.0 °F 75% 30.30 in 10.0 mi NNW 4.6 mph - N/A   Clear
8:55 PM 37.4 °F - 32.0 °F 81% 30.31 in 10.0 mi Calm Calm - N/A   Clear
9:15 PM 37.4 °F 34.9 °F 32.0 °F 81% 30.31 in 10.0 mi North 3.5 mph - N/A   Clear
9:35 PM 37.4 °F - 32.0 °F 81% 30.33 in 10.0 mi Calm Calm - N/A   Clear
9:55 PM 37.4 °F - 32.0 °F 81% 30.33 in 10.0 mi Calm Calm - N/A   Clear
10:15 PM 35.6 °F - 32.0 °F 87% 30.33 in 10.0 mi Calm Calm - N/A   Clear
10:35 PM 35.6 °F - 32.0 °F 87% 30.33 in 10.0 mi Calm Calm - N/A   Clear
10:55 PM 35.6 °F 32.8 °F 30.2 °F 81% 30.33 in 10.0 mi North 3.5 mph - N/A   Clear
11:15 PM 35.6 °F - 30.2 °F 81% 30.34 in 10.0 mi Calm Calm - N/A   Clear
11:35 PM 35.6 °F 32.8 °F 30.2 °F 81% 30.34 in 10.0 mi North 3.5 mph - N/A   Clear
11:55 PM 35.6 °F - 30.2 °F 81% 30.35 in 10.0 mi Calm Calm - N/A   Clear